Location: Ferchesar
(52.6477°N, 12.4298°E)
Time: 17:43:18
(UTC+01:00)

Tiros 1 - Visible Passes

Search period start: 03 December 2022 00:00
Search period end: 13 December 2022 00:00
Orbit: 629 x 662 km, 48.4° (Epoch: 03 December)

Date Brightness Start Highest point End Pass type
(mag) Time Alt. Az. Time Alt. Az. Time Alt. Az.
03 Dec 10.1 03:46:45 11° ESE 03:46:45 11° ESE 03:46:59 10° ESE visible
03 Dec 8.4 05:24:23 28° SSW 05:24:23 28° SSW 05:28:02 10° SSE visible
04 Dec 9.7 04:11:20 15° SE 04:11:20 15° SE 04:12:10 10° SE visible
04 Dec 8.9 05:48:59 18° SW 05:49:13 18° SW 05:52:17 10° S visible
05 Dec 9.4 04:35:59 16° SSE 04:35:59 16° SSE 04:37:05 10° SE visible
06 Dec 9.5 05:00:42 13° S 05:00:42 13° S 05:01:26 10° S visible
